Simultaneous Nadir Overpasses (SNOs) Predictions

Prediction of SNOs between GOES-17 and METOP-C Satellite Orbit:

Table of predicted SNOs for the next 14.0 days since TLE Epoch: 12/17/2022
Index Date Time (GOES-17) GOES-17 Lat,Lon METOP-C Lat,Lon Distance(km) Time Diff (sec)
1 12/17/2022 18:25:31 0.00,-137.34 -0.82,-133.55 430.45 80
2 12/19/2022 06:41:51 0.01,-137.33 -0.16,-138.16 94.10 80
3 12/20/2022 06:23:51 0.01,-137.32 0.95,-133.16 474.53 80
4 12/21/2022 18:40:04 -0.01,-137.31 0.08,-137.72 45.97 80
5 12/24/2022 06:38:24 -0.00,-137.27 -0.01,-137.31 4.00 80
6 12/26/2022 18:39:15 0.02,-137.24 -0.04,-136.86 42.28 80
7 12/28/2022 06:55:35 -0.03,-137.21 -1.00,-141.45 484.23 80
8 12/29/2022 06:37:35 -0.04,-137.19 0.11,-136.45 83.26 80
9 12/30/2022 18:53:48 0.04,-137.16 0.87,-141.02 438.72 80
